Regional Weather Roundup
Issued by NWS

Home | Current Version | Previous Version | Text Only | Print | Product List | Glossary On
Versions: 1 2 3 4 5 6 7 8 9 10 11 12 13 14 15 16 17 18 19 20 21 22 23 24 25 26 27 28 29 30 31 32 33 34 35 36 37 38 39 40 41 42 43 44 45 46 47 48 49 50
085
ASUS44 KBMX 240110
RWRAL

ALABAMA REGIONAL WEATHER ROUNDUP
NATIONAL WEATHER SERVICE BIRMINGHAM AL
800 PM CDT SAT JUL 23 2016

NOTE: "FAIR" INDICATES FEW OR NO CLOUDS BELOW 12,000 FEET
WITH NO SIGNIFICANT WEATHER AND/OR OBSTRUCTIONS TO VISIBILITY.

THE REMARK "TC" DENOTES TEMPERATURE IN DEGREES CELSIUS.

ALZ001>011-014-016>018-020-240200-
NORTH ALABAMA

CITY           SKY/WX    TMP DP  RH WIND       PRES   REMARKS
MUSCLE SHOALS  CLOUDY    85  76  74 SE3       29.98R HX  94
HUNTSVILLE     CLOUDY    82  68  62 E9        30.00R THUNDER
DECATUR        CLOUDY    82  73  74 VRB6      30.01R
HALEYVILLE     FAIR      81  73  76 SE5G17    30.03R
GADSDEN        LGT RAIN  73  72  96 CALM      30.01S
$$

ALZ012-013-022-023-030>036-040>044-240200-
WEST CENTRAL ALABAMA

CITY           SKY/WX    TMP DP  RH WIND       PRES   REMARKS
TUSCALOOSA     CLOUDY    84  80  88 CALM      29.95R HX  97
$$

ALZ015-024>027-033>036-040>044-240200-
CENTRAL ALABAMA

CITY           SKY/WX    TMP DP  RH WIND       PRES   REMARKS
BIRMINGHAM     CLOUDY    81  76  84 E3        30.00F
MONTGOMERY     PTCLDY    86  74  67 S5        29.95S HX  94
SHELBY CO ARPT CLOUDY    85  76  74 CALM      29.97F HX  94
MAXWELL AFB    PTCLDY    84  77  79 SW2       29.95R HX  95
GREENVILLE     FAIR      85  71  63 SW6       29.97R HX  90
$$

ALZ019-021-028-029-037-038-045>048-240200-
EAST CENTRAL ALABAMA

CITY           SKY/WX    TMP DP  RH WIND       PRES   REMARKS
ANNISTON       LGT RAIN  76  73  91 N6        30.01S
ALEXANDER CITY CLOUDY    82  80  95 CALM      29.99R HX  92
AUBURN         CLOUDY    86  71  60 S6        30.01R HX  91
$$

ALZ051>064-240200-
SOUTHWEST ALABAMA

CITY           SKY/WX    TMP DP  RH WIND       PRES   REMARKS
MOBILE         MOCLDY    84  76  76 S7        29.96S HX  93
BROOKLEY FIELD CLOUDY    84  76  76 S3        29.96S HX  93
EVERGREEN      PTCLDY    79  75  87 CALM      29.97R
$$

ALZ049-050-065>069-240200-
SOUTHEAST ALABAMA

CITY           SKY/WX    TMP DP  RH WIND       PRES   REMARKS
DOTHAN         LGT RAIN  81  76  84 SW9       30.01R
OZARK          MOCLDY    80  71  74 S9        29.98R
TROY           PTCLDY    82  77  84 CALM      29.98R HX  90
EUFAULA        FAIR      82  76  81 CALM      29.96R
$$




USA.gov is the U.S. government's official web portal to all federal, state and local government web resources and services.